LZB971 LBSF-LBWN

Flight info

Callsign LZB971
Flight time N/A
Altitude 27000
Route UMPIT4S/09 UMPIT T343 DICXA
Aircraft A320/M-SDE3FGHIRWY/LB1

Departure

Time N/A
Airport Sofia Airport (LBSF)

Arrival

Time 2026-04-28 18:52
Airport Varna Airport (LBWN)
Time Latitude Longitude Altitude Speed Heading
2026-04-28 18:44 43.18282 27.49309 8622 ft 248 kts 261°
2026-04-28 18:45 43.18143 27.46991 8075 ft 242 kts 281°
2026-04-28 18:45 43.18706 27.44850 7508 ft 240 kts 304°
2026-04-28 18:45 43.19833 27.43206 7015 ft 237 kts 325°
2026-04-28 18:45 43.21329 27.42303 6529 ft 237 kts 347°
2026-04-28 18:46 43.22977 27.42290 5945 ft 241 kts
2026-04-28 18:46 43.24511 27.43222 5497 ft 241 kts 36°
2026-04-28 18:46 43.25600 27.44881 5321 ft 230 kts 58°
2026-04-28 18:46 43.26137 27.46913 5108 ft 228 kts 80°
2026-04-28 18:47 43.26116 27.49097 4838 ft 231 kts 95°
2026-04-28 18:47 43.25923 27.51293 4531 ft 232 kts 94°
2026-04-28 18:47 43.25731 27.53497 4215 ft 233 kts 96°
2026-04-28 18:47 43.25540 27.55705 3906 ft 233 kts 95°
2026-04-28 18:48 43.25350 27.57899 3598 ft 228 kts 96°
2026-04-28 18:48 43.25167 27.60008 3302 ft 217 kts 96°
2026-04-28 18:48 43.24993 27.62018 3019 ft 207 kts 97°
2026-04-28 18:48 43.24826 27.63939 2749 ft 199 kts 97°
2026-04-28 18:49 43.24668 27.65760 2493 ft 192 kts 97°
2026-04-28 18:49 43.24615 27.66370 2410 ft 189 kts 97°
2026-04-28 18:49 43.24364 27.69253 2005 ft 171 kts 98°
2026-04-28 18:49 43.24230 27.70785 1775 ft 158 kts 97°
2026-04-28 18:50 43.24101 27.72260 1544 ft 149 kts 98°
2026-04-28 18:50 43.23982 27.73610 1344 ft 142 kts 98°
2026-04-28 18:50 43.23866 27.74930 1164 ft 136 kts 100°
2026-04-28 18:50 43.23756 27.76188 972 ft 131 kts 99°
2026-04-28 18:51 43.23645 27.77440 777 ft 133 kts 98°
2026-04-28 18:51 43.23533 27.78707 592 ft 134 kts 99°
2026-04-28 18:51 43.23419 27.79976 406 ft 134 kts 99°
2026-04-28 18:51 43.23312 27.81248 244 ft 133 kts 97°
2026-04-28 18:52 43.23207 27.82407 225 ft 111 kts 97°
2026-04-28 18:52 43.23164 27.82902 223 ft 21 kts 97°
2026-04-28 18:52 43.23131 27.83182 222 ft 29 kts 95°
2026-04-28 18:52 43.23182 27.83268 225 ft 9 kts 351°
2026-04-28 18:53 43.23249 27.83289 222 ft 10 kts 26°
2026-04-28 18:53 43.23319 27.83309 222 ft 1 kts
2026-04-28 18:53 43.23421 27.83261 222 ft 29 kts 314°
2026-04-28 18:53 43.23558 27.82969 223 ft 41 kts 284°
2026-04-28 18:54 43.23580 27.82711 222 ft 5 kts 278°
2026-04-28 18:54 43.23580 27.82747 222 ft 10 kts 237°
2026-04-28 18:54 43.23602 27.82767 223 ft 0 kts 185°
2026-04-28 18:54 43.23604 27.82768 223 ft 3 kts 185°
2026-04-28 18:55 43.23614 27.82769 222 ft 1 kts 185°
2026-04-28 18:55 43.23615 27.82769 222 ft 0 kts 185°
2026-04-28 18:59 43.23470 27.83227 222 ft 0 kts 335°